WB5TZJ Weather Reports


time (UTC)temp
C
wind
direction
speed
KPH
gust
KPH
rain 1hr
cm
rain 24hr
cm
rain mn
cm
humidity
%
barometer
mb
20260507141022 22 0 0.0 0.0 0.00 0.00 0.00 46 1014.9
20260507140022 22 0 0.0 0.0 0.00 0.00 0.00 45 1015.2
20260507135022 22 0 0.0 0.0 0.00 0.00 0.00 45 1015.2
20260507134022 22 0 0.0 0.0 0.00 0.00 0.00 46 1014.5
20260507133022 22 0 0.0 0.0 0.00 0.00 0.00 44 1014.5
20260507132022 22 0 0.0 0.0 0.00 0.00 0.00 46 1014.5
20260507131022 22 0 0.0 0.0 0.00 0.00 0.00 45 1014.9
20260507130022 22 0 0.0 0.0 0.00 0.00 0.00 43 1014.5
20260507125022 22 0 0.0 0.0 0.00 0.00 0.00 46 1014.5
20260507124022 22 0 0.0 0.0 0.00 0.00 0.00 41 1013.8
20260507123022 22 0 0.0 0.0 0.00 0.00 0.00 42 1013.8
20260507122022 22 0 0.0 0.0 0.00 0.00 0.00 44 1014.2
20260507121022 22 0 0.0 0.0 0.00 0.00 0.00 41 1013.8
20260507120022 22 0 0.0 0.0 0.00 0.00 0.00 43 1013.5
20260507115022 22 0 0.0 0.0 0.00 0.00 0.00 45 1013.5
20260507114022 22 0 0.0 0.0 0.00 0.00 0.00 47 1013.5
20260507113023 22 0 0.0 0.0 0.00 0.00 0.00 42 1013.8
20260507112022 22 0 0.0 0.0 0.00 0.00 0.00 44 1013.2
20260507111022 22 0 0.0 0.0 0.00 0.00 0.00 42 1013.2
20260507110022 22 0 0.0 0.0 0.00 0.00 0.00 42 1012.8
20260507105022 22 0 0.0 0.0 0.00 0.00 0.00 44 1013.2
20260507104022 22 0 0.0 0.0 0.00 0.00 0.00 46 1012.8
20260507103022 22 0 0.0 0.0 0.00 0.00 0.00 44 1012.8
20260507102022 22 0 0.0 0.0 0.00 0.00 0.00 44 1012.8
20260507101023 22 0 0.0 0.0 0.00 0.00 0.00 42 1012.5
20260507100023 22 0 0.0 0.0 0.00 0.00 0.00 43 1012.5
20260507095023 22 0 0.0 0.0 0.00 0.00 0.00 41 1012.8
20260507094023 22 0 0.0 0.0 0.00 0.00 0.00 42 1012.8
20260507093023 22 0 0.0 0.0 0.00 0.00 0.00 43 1012.8
20260507092023 22 0 0.0 0.0 0.00 0.00 0.00 46 1012.5
20260507091023 22 0 0.0 0.0 0.00 0.00 0.00 45 1012.5
20260507090023 22 0 0.0 0.0 0.00 0.00 0.00 42 1012.5
20260507085023 22 0 0.0 0.0 0.00 0.00 0.00 43 1012.5
20260507084023 22 0 0.0 0.0 0.00 0.00 0.00 45 1012.8
20260507083023 22 0 0.0 0.0 0.00 0.00 0.00 43 1012.5
20260507082023 22 0 0.0 0.0 0.00 0.00 0.00 41 1012.5
20260507081023 22 0 0.0 0.0 0.00 0.00 0.00 41 1012.5
20260507080023 22 0 0.0 0.0 0.00 0.00 0.00 42 1012.8
20260507075023 22 0 0.0 0.0 0.00 0.00 0.00 44 1013.2
20260507074023 22 0 0.0 0.0 0.00 0.00 0.00 47 1013.2
20260507073023 22 0 0.0 0.0 0.00 0.00 0.00 45 1013.2
20260507072023 22 0 0.0 0.0 0.00 0.00 0.00 41 1012.8
20260507071023 22 0 0.0 0.0 0.00 0.00 0.00 41 1013.2
20260507070023 22 0 0.0 0.0 0.00 0.00 0.00 42 1013.2
20260507065023 22 0 0.0 0.0 0.00 0.00 0.00 44 1013.2
20260507064023 22 0 0.0 0.0 0.00 0.00 0.00 47 1012.8
20260507063023 22 0 0.0 0.0 0.00 0.00 0.00 46 1012.8
20260507062023 22 0 0.0 0.0 0.00 0.00 0.00 42 1013.2
20260507061023 22 0 0.0 0.0 0.00 0.00 0.00 43 1012.8
20260507060023 22 0 0.0 0.0 0.00 0.00 0.00 41 1012.8
20260507055023 22 0 0.0 0.0 0.00 0.00 0.00 41 1012.8
20260507054023 22 0 0.0 0.0 0.00 0.00 0.00 42 1012.8
20260507053023 22 0 0.0 0.0 0.00 0.00 0.00 43 1012.5
20260507052526 22 0 0.0 0.0 0.00 0.00 0.00 45 1012.5
20260507052023 22 0 0.0 0.0 0.00 0.00 0.00 42 1012.8
20260507051023 22 0 0.0 0.0 0.00 0.00 0.00 42 1012.5
20260507050023 22 0 0.0 0.0 0.00 0.00 0.00 42 1012.5
20260507045023 22 0 0.0 0.0 0.00 0.00 0.00 43 1012.8
20260507044023 22 0 0.0 0.0 0.00 0.00 0.00 42 1012.5
20260507043023 22 0 0.0 0.0 0.00 0.00 0.00 42 1012.5
20260507042526 22 0 0.0 0.0 0.00 0.00 0.00 42 1012.5
20260507042024 22 0 0.0 0.0 0.00 0.00 0.00 43 1012.1
20260507041024 22 0 0.0 0.0 0.00 0.00 0.00 42 1011.5
20260507040024 22 0 0.0 0.0 0.00 0.00 0.00 42 1011.8
20260507035526 22 0 0.0 0.0 0.00 0.00 0.00 42 1011.1
20260507035024 22 0 0.0 0.0 0.00 0.00 0.00 42 1010.8
20260507034024 22 0 0.0 0.0 0.00 0.00 0.00 42 1010.4
20260507033024 22 0 0.0 0.0 0.00 0.00 0.00 42 1010.4
20260507032526 22 0 0.0 0.0 0.00 0.00 0.00 42 1010.4
20260507032024 22 0 0.0 0.0 0.00 0.00 0.00 42 1010.1
20260507031024 22 0 0.0 0.0 0.00 0.00 0.00 42 1010.1
20260507030024 22 0 0.0 0.0 0.00 0.00 0.00 42 1010.4
20260507025024 22 0 0.0 0.0 0.00 0.00 0.00 42 1010.4
20260507024024 22 0 0.0 0.0 0.00 0.00 0.00 42 1010.4
20260507023024 22 0 0.0 0.0 0.00 0.00 0.00 42 1010.1
20260507022024 22 0 0.0 0.0 0.00 0.00 0.00 42 1010.1
20260507021024 22 0 0.0 0.0 0.00 0.00 0.00 42 1010.1
20260507020024 22 0 0.0 0.0 0.00 0.00 0.00 42 1009.8
20260507015024 22 0 0.0 0.0 0.00 0.00 0.00 42 1009.8
20260507014024 22 0 0.0 0.0 0.00 0.00 0.00 42 1009.8
20260507013024 22 0 0.0 0.0 0.00 0.00 0.00 42 1009.8
20260507012024 22 0 0.0 0.0 0.00 0.00 0.00 42 1009.4
20260507011024 22 0 0.0 0.0 0.00 0.00 0.00 42 1009.4
20260507010024 22 0 0.0 0.0 0.00 0.00 0.00 42 1009.1
20260507005024 22 0 0.0 0.0 0.00 0.00 0.00 42 1009.1
20260507004025 22 0 0.0 0.0 0.00 0.00 0.00 42 1008.8
20260507003024 22 0 0.0 0.0 0.00 0.00 0.00 42 1009.1
20260507002024 22 0 0.0 0.0 0.00 0.00 0.00 42 1008.8
20260507001024 22 0 0.0 0.0 0.00 0.00 0.00 42 1008.8
20260507000024 22 0 0.0 0.0 0.00 0.00 0.00 42 1008.4
20260506235024 22 0 0.0 0.0 0.00 0.00 0.00 42 1008.4
20260506234024 22 0 0.0 0.0 0.00 0.00 0.00 42 1008.4
20260506233024 22 0 0.0 0.0 0.00 0.00 0.00 42 1008.4
20260506232024 22 0 0.0 0.0 0.00 0.00 0.00 43 1008.4
20260506231024 22 0 0.0 0.0 0.00 0.00 0.00 42 1008.1
20260506230024 22 0 0.0 0.0 0.00 0.00 0.00 43 1007.7
20260506225024 22 0 0.0 0.0 0.00 0.00 0.00 43 1007.7
20260506224024 22 0 0.0 0.0 0.00 0.00 0.00 43 1008.1
20260506223025 22 0 0.0 0.0 0.00 0.00 0.00 43 1008.1
20260506222024 22 0 0.0 0.0 0.00 0.00 0.00 43 1008.4
20260506221025 22 0 0.0 0.0 0.00 0.00 0.00 44 1008.1
20260506220025 22 0 0.0 0.0 0.00 0.00 0.00 44 1008.1
20260506215025 22 0 0.0 0.0 0.00 0.00 0.00 44 1007.7
20260506214025 22 0 0.0 0.0 0.00 0.00 0.00 44 1008.1
20260506213025 22 0 0.0 0.0 0.00 0.00 0.00 44 1008.4
20260506212025 22 0 0.0 0.0 0.00 0.00 0.00 44 1008.4
20260506211025 22 0 0.0 0.0 0.00 0.00 0.00 44 1008.4
20260506210025 22 0 0.0 0.0 0.00 0.00 0.00 43 1008.4
20260506205025 22 0 0.0 0.0 0.00 0.00 0.00 44 1008.4
20260506204025 22 0 0.0 0.0 0.00 0.00 0.00 44 1008.8
20260506203025 22 0 0.0 0.0 0.00 0.00 0.00 44 1008.8
20260506202025 22 0 0.0 0.0 0.00 0.00 0.00 45 1008.8
20260506201025 22 0 0.0 0.0 0.00 0.00 0.00 45 1008.4
20260506200025 22 0 0.0 0.0 0.00 0.00 0.00 45 1008.8
20260506195025 22 0 0.0 0.0 0.00 0.00 0.00 45 1009.1
20260506194025 22 0 0.0 0.0 0.00 0.00 0.00 45 1009.1
20260506193025 22 0 0.0 0.0 0.00 0.00 0.00 45 1009.1
20260506192025 22 0 0.0 0.0 0.00 0.00 0.00 45 1009.1
20260506191025 22 0 0.0 0.0 0.00 0.00 0.00 45 1009.1
20260506190025 22 0 0.0 0.0 0.00 0.00 0.00 45 1009.4
20260506185025 22 0 0.0 0.0 0.00 0.00 0.00 45 1009.4
20260506184025 22 0 0.0 0.0 0.00 0.00 0.00 45 1009.4
20260506183025 22 0 0.0 0.0 0.00 0.00 0.00 46 1009.8
20260506182025 22 0 0.0 0.0 0.00 0.00 0.00 46 1009.8
20260506181025 22 0 0.0 0.0 0.00 0.00 0.00 46 1010.1
20260506180025 22 0 0.0 0.0 0.00 0.00 0.00 46 1010.1
20260506175025 22 0 0.0 0.0 0.00 0.00 0.00 46 1010.1
20260506174025 22 0 0.0 0.0 0.00 0.00 0.00 46 1010.4
20260506173025 22 0 0.0 0.0 0.00 0.00 0.00 47 1010.4
20260506172025 22 0 0.0 0.0 0.00 0.00 0.00 47 1010.4
20260506171025 22 0 0.0 0.0 0.00 0.00 0.00 47 1010.4
20260506170025 22 0 0.0 0.0 0.00 0.00 0.00 47 1010.1
20260506165025 22 0 0.0 0.0 0.00 0.00 0.00 45 1010.1
20260506164026 22 0 0.0 0.0 0.00 0.00 0.00 44 1009.8
20260506163026 22 0 0.0 0.0 0.00 0.00 0.00 44 1010.1
20260506162026 22 0 0.0 0.0 0.00 0.00 0.00 44 1009.8
20260506161026 22 0 0.0 0.0 0.00 0.00 0.00 44 1009.4
20260506160026 22 0 0.0 0.0 0.00 0.00 0.00 45 1009.4
20260506155026 22 0 0.0 0.0 0.00 0.00 0.00 46 1009.4
20260506154026 22 0 0.0 0.0 0.00 0.00 0.00 45 1009.4
20260506153026 22 0 0.0 0.0 0.00 0.00 0.00 42 1009.4
20260506152026 22 0 0.0 0.0 0.00 0.00 0.00 42 1009.4
20260506151026 22 0 0.0 0.0 0.00 0.00 0.00 42 1009.4
20260506150026 22 0 0.0 0.0 0.00 0.00 0.00 43 1009.1
20260506145026 22 0 0.0 0.0 0.00 0.00 0.00 43 1008.8
20260506144026 22 0 0.0 0.0 0.00 0.00 0.00 43 1008.8
20260506143026 22 0 0.0 0.0 0.00 0.00 0.00 43 1008.4
20260506142026 22 0 0.0 0.0 0.00 0.00 0.00 43 1008.4